| time (UTC) | temp C | wind direction | speed KPH | gust KPH | rain 1hr cm | rain 24hr cm | rain mn cm | humidity % | barometer mb |
| 20260504045036 | 11 | 211 | 9.7 | 16.1 | 0.00 | 0.00 | 0.00 | 51 | 1009.7 |
| 20260504044535 | 11 | 223 | 6.4 | 20.9 | 0.00 | 0.00 | 0.00 | 51 | 1009.8 |
| 20260504044036 | 11 | 221 | 9.7 | 22.5 | 0.00 | 0.00 | 0.00 | 50 | 1009.7 |
| 20260504043536 | 11 | 237 | 14.5 | 24.1 | 0.00 | 0.00 | 0.00 | 49 | 1009.8 |
| 20260504043035 | 11 | 198 | 14.5 | 24.1 | 0.00 | 0.00 | 0.00 | 49 | 1009.6 |
| 20260504042535 | 11 | 213 | 12.9 | 24.1 | 0.00 | 0.00 | 0.00 | 49 | 1009.5 |
| 20260504042035 | 11 | 216 | 11.3 | 24.1 | 0.00 | 0.00 | 0.00 | 49 | 1009.7 |
| 20260504041534 | 11 | 250 | 6.4 | 24.1 | 0.00 | 0.00 | 0.00 | 48 | 1009.5 |
| 20260504041303 | 11 | 195 | 12.9 | 22.5 | 0.00 | 0.00 | 0.00 | 49 | 1009.7 |
| 20260504040534 | 11 | 216 | 9.7 | 22.5 | 0.00 | 0.00 | 0.00 | 48 | 1009.7 |
| 20260504040034 | 11 | 203 | 12.9 | 22.5 | 0.00 | 0.00 | 0.00 | 48 | 1009.8 |
| 20260504035534 | 11 | 196 | 12.9 | 24.1 | 0.00 | 0.00 | 0.00 | 48 | 1009.7 |
| 20260504035034 | 11 | 224 | 4.8 | 29.0 | 0.00 | 0.00 | 0.00 | 48 | 1009.8 |
| 20260504034533 | 12 | 218 | 9.7 | 40.2 | 0.00 | 0.00 | 0.00 | 47 | 1009.5 |
| 20260504034033 | 12 | 215 | 16.1 | 40.2 | 0.00 | 0.00 | 0.00 | 47 | 1009.8 |
| 20260504033533 | 11 | 163 | 6.4 | 24.1 | 0.00 | 0.00 | 0.00 | 48 | 1009.7 |
| 20260504033033 | 12 | 202 | 6.4 | 25.7 | 0.00 | 0.00 | 0.00 | 48 | 1009.8 |
| 20260504032532 | 12 | 241 | 16.1 | 25.7 | 0.00 | 0.00 | 0.00 | 47 | 1009.6 |
| 20260504032032 | 12 | 227 | 17.7 | 30.6 | 0.00 | 0.00 | 0.00 | 47 | 1009.6 |
| 20260504031750 | 12 | 225 | 17.7 | 30.6 | 0.00 | 0.00 | 0.00 | 47 | 1009.6 |
| 20260504031031 | 12 | 220 | 14.5 | 27.4 | 0.00 | 0.00 | 0.00 | 47 | 1009.5 |
| 20260504030531 | 11 | 189 | 4.8 | 24.1 | 0.00 | 0.00 | 0.00 | 48 | 1009.6 |
| 20260504030032 | 11 | 213 | 12.9 | 24.1 | 0.00 | 0.00 | 0.00 | 48 | 1009.6 |
| 20260504025531 | 11 | 229 | 14.5 | 25.7 | 0.00 | 0.00 | 0.00 | 48 | 1009.5 |
| 20260504025031 | 11 | 186 | 12.9 | 25.7 | 0.00 | 0.00 | 0.00 | 49 | 1009.6 |
| 20260504024751 | 11 | 237 | 17.7 | 24.1 | 0.00 | 0.00 | 0.00 | 49 | 1009.6 |
| 20260504024030 | 11 | 200 | 6.4 | 30.6 | 0.00 | 0.00 | 0.00 | 50 | 1009.6 |
| 20260504023530 | 11 | 268 | 3.2 | 30.6 | 0.00 | 0.00 | 0.00 | 50 | 1009.8 |
| 20260504023030 | 11 | 224 | 22.5 | 30.6 | 0.00 | 0.00 | 0.00 | 50 | 1009.8 |
| 20260504022530 | 11 | 195 | 4.8 | 27.4 | 0.00 | 0.00 | 0.00 | 50 | 1009.9 |
| 20260504022029 | 11 | 216 | 11.3 | 25.7 | 0.00 | 0.00 | 0.00 | 50 | 1009.8 |
| 20260504021529 | 11 | 194 | 6.4 | 24.1 | 0.00 | 0.00 | 0.00 | 49 | 1009.9 |
| 20260504021247 | 11 | 212 | 3.2 | 24.1 | 0.00 | 0.00 | 0.00 | 49 | 1009.9 |
| 20260504020529 | 11 | 190 | 6.4 | 32.2 | 0.00 | 0.00 | 0.00 | 49 | 1009.9 |
| 20260504020029 | 11 | 191 | 9.7 | 32.2 | 0.00 | 0.00 | 0.00 | 49 | 1010.1 |
| 20260504015749 | 11 | 237 | 8.0 | 25.7 | 0.00 | 0.00 | 0.00 | 49 | 1009.9 |
| 20260504015028 | 11 | 229 | 9.7 | 22.5 | 0.00 | 0.00 | 0.00 | 49 | 1010.1 |
| 20260504014528 | 11 | 220 | 3.2 | 20.9 | 0.00 | 0.00 | 0.00 | 50 | 1010.2 |
| 20260504014250 | 11 | 207 | 16.1 | 29.0 | 0.00 | 0.00 | 0.00 | 50 | 1010.1 |
| 20260504013527 | 11 | 204 | 12.9 | 29.0 | 0.00 | 0.00 | 0.00 | 50 | 1010.1 |
| 20260504013027 | 11 | 224 | 8.0 | 29.0 | 0.00 | 0.00 | 0.00 | 50 | 1010.2 |
| 20260504012530 | 11 | 214 | 12.9 | 20.9 | 0.00 | 0.00 | 0.00 | 52 | 1010.4 |
| 20260504012027 | 11 | 216 | 9.7 | 20.9 | 0.00 | 0.00 | 0.00 | 53 | 1010.1 |
| 20260504011527 | 11 | 199 | 8.0 | 24.1 | 0.00 | 0.00 | 0.00 | 52 | 1010.3 |
| 20260504011026 | 11 | 200 | 8.0 | 24.1 | 0.00 | 0.00 | 0.00 | 52 | 1010.4 |
| 20260504010526 | 11 | 252 | 11.3 | 29.0 | 0.00 | 0.00 | 0.00 | 52 | 1010.1 |
| 20260504010026 | 11 | 207 | 9.7 | 29.0 | 0.00 | 0.00 | 0.00 | 52 | 1010.1 |
| 20260504005526 | 11 | 205 | 6.4 | 24.1 | 0.00 | 0.00 | 0.00 | 52 | 1010.2 |
| 20260504005249 | 11 | 186 | 8.0 | 24.1 | 0.00 | 0.00 | 0.00 | 53 | 1010.0 |
| 20260504004755 | 11 | 227 | 12.9 | 24.1 | 0.00 | 0.00 | 0.00 | 53 | 1010.2 |
| 20260504004255 | 11 | 180 | 3.2 | 24.1 | 0.00 | 0.00 | 0.00 | 53 | 1010.3 |
| 20260504003525 | 11 | 218 | 16.1 | 20.9 | 0.00 | 0.00 | 0.00 | 55 | 1010.2 |
| 20260504003257 | 11 | 216 | 8.0 | 22.5 | 0.00 | 0.00 | 0.00 | 54 | 1010.0 |
| 20260504002525 | 11 | 205 | 9.7 | 22.5 | 0.00 | 0.00 | 0.00 | 54 | 1010.1 |
| 20260504002246 | 11 | 242 | 8.0 | 24.1 | 0.00 | 0.00 | 0.00 | 57 | 1010.0 |
| 20260504001746 | 11 | 253 | 4.8 | 24.1 | 0.00 | 0.00 | 0.00 | 57 | 1010.1 |
| 20260504001024 | 11 | 202 | 6.4 | 20.9 | 0.00 | 0.00 | 0.00 | 57 | 1010.4 |
| 20260504000741 | 11 | 143 | 6.4 | 22.5 | 0.00 | 0.00 | 0.00 | 58 | 1010.2 |
| 20260504000024 | 11 | 206 | 8.0 | 22.5 | 0.00 | 0.00 | 0.00 | 58 | 1010.3 |
| 20260503235747 | 11 | 223 | 8.0 | 19.3 | 0.00 | 0.00 | 0.00 | 58 | 1010.5 |
| 20260503235023 | 11 | 301 | 1.6 | 20.9 | 0.00 | 0.00 | 0.00 | 58 | 1010.5 |
| 20260503234523 | 11 | 205 | 6.4 | 24.1 | 0.00 | 0.00 | 0.00 | 57 | 1010.7 |
| 20260503234023 | 11 | 271 | 9.7 | 24.1 | 0.00 | 0.00 | 0.00 | 56 | 1010.5 |
| 20260503233523 | 11 | 203 | 6.4 | 27.4 | 0.00 | 0.00 | 0.00 | 57 | 1010.4 |
| 20260503233022 | 11 | 336 | 9.7 | 27.4 | 0.00 | 0.00 | 0.00 | 55 | 1010.5 |
| 20260503232522 | 11 | 177 | 3.2 | 27.4 | 0.00 | 0.00 | 0.00 | 54 | 1010.4 |
| 20260503232022 | 11 | 214 | 4.8 | 16.1 | 0.00 | 0.00 | 0.00 | 54 | 1010.2 |
| 20260503231522 | 11 | 219 | 4.8 | 20.9 | 0.00 | 0.00 | 0.00 | 54 | 1010.2 |
| 20260503231021 | 11 | 264 | 8.0 | 22.5 | 0.00 | 0.00 | 0.00 | 53 | 1010.3 |
| 20260503230521 | 11 | 248 | 6.4 | 25.7 | 0.00 | 0.00 | 0.00 | 53 | 1010.2 |
| 20260503230021 | 11 | 51 | 9.7 | 27.4 | 0.00 | 0.00 | 0.00 | 53 | 1010.2 |
| 20260503225742 | 11 | 246 | 11.3 | 27.4 | 0.00 | 0.00 | 0.00 | 53 | 1010.2 |
| 20260503225021 | 11 | 249 | 22.5 | 30.6 | 0.00 | 0.00 | 0.00 | 53 | 1010.6 |
| 20260503224521 | 11 | 222 | 3.2 | 37.0 | 0.00 | 0.00 | 0.00 | 53 | 1010.2 |
| 20260503224022 | 11 | 217 | 8.0 | 37.0 | 0.00 | 0.00 | 0.00 | 52 | 1010.3 |
| 20260503223520 | 11 | 204 | 27.4 | 37.0 | 0.00 | 0.00 | 0.00 | 53 | 1010.4 |
| 20260503223020 | 11 | 228 | 9.7 | 33.8 | 0.00 | 0.00 | 0.00 | 52 | 1010.1 |
| 20260503222520 | 11 | 206 | 11.3 | 33.8 | 0.00 | 0.00 | 0.00 | 52 | 1010.2 |
| 20260503222020 | 11 | 223 | 9.7 | 30.6 | 0.00 | 0.00 | 0.00 | 52 | 1009.9 |
| 20260503221520 | 11 | 202 | 17.7 | 29.0 | 0.00 | 0.00 | 0.00 | 53 | 1010.2 |
| 20260503221020 | 11 | 198 | 11.3 | 35.4 | 0.00 | 0.00 | 0.00 | 52 | 1010.2 |
| 20260503221006 | 11 | 272 | 8.0 | 35.4 | 0.00 | 0.00 | 0.00 | 52 | 1010.1 |
| 20260503220019 | 11 | 215 | 8.0 | 46.7 | 0.00 | 0.00 | 0.00 | 52 | 1010.2 |
| 20260503215519 | 11 | 217 | 30.6 | 46.7 | 0.00 | 0.00 | 0.00 | 51 | 1010.1 |
| 20260503215018 | 11 | 294 | 6.4 | 33.8 | 0.00 | 0.00 | 0.00 | 52 | 1010.0 |
| 20260503214518 | 11 | 226 | 19.3 | 40.2 | 0.00 | 0.00 | 0.00 | 51 | 1009.9 |
| 20260503214237 | 11 | 261 | 8.0 | 40.2 | 0.00 | 0.00 | 0.00 | 50 | 1010.0 |
| 20260503213518 | 11 | 293 | 3.2 | 40.2 | 0.00 | 0.00 | 0.00 | 51 | 1010.1 |
| 20260503213018 | 11 | 213 | 17.7 | 38.6 | 0.00 | 0.00 | 0.00 | 50 | 1010.1 |
| 20260503212518 | 11 | 259 | 6.4 | 38.6 | 0.00 | 0.00 | 0.00 | 49 | 1009.9 |
| 20260503212017 | 11 | 223 | 17.7 | 35.4 | 0.00 | 0.00 | 0.00 | 49 | 1010.3 |
| 20260503211517 | 12 | 229 | 16.1 | 35.4 | 0.00 | 0.00 | 0.00 | 47 | 1010.1 |
| 20260503211017 | 12 | 231 | 12.9 | 30.6 | 0.00 | 0.00 | 0.00 | 47 | 1010.1 |
| 20260503210516 | 12 | 318 | 6.4 | 30.6 | 0.00 | 0.00 | 0.00 | 46 | 1010.0 |
| 20260503210016 | 12 | 222 | 19.3 | 27.4 | 0.00 | 0.00 | 0.00 | 46 | 1010.0 |
| 20260503205516 | 12 | 217 | 8.0 | 27.4 | 0.00 | 0.00 | 0.00 | 47 | 1010.1 |
| 20260503205016 | 12 | 249 | 14.5 | 30.6 | 0.00 | 0.00 | 0.00 | 46 | 1010.3 |
| 20260503204516 | 12 | 225 | 8.0 | 30.6 | 0.00 | 0.00 | 0.00 | 47 | 1010.4 |
| 20260503204458 | 12 | 224 | 9.7 | 29.0 | 0.00 | 0.00 | 0.00 | 46 | 1010.2 |
| 20260503203515 | 12 | 304 | 11.3 | 30.6 | 0.00 | 0.00 | 0.00 | 45 | 1010.2 |
| 20260503203015 | 12 | 261 | 3.2 | 30.6 | 0.00 | 0.00 | 0.00 | 45 | 1010.3 |
| 20260503202515 | 12 | 218 | 4.8 | 37.0 | 0.00 | 0.00 | 0.00 | 45 | 1010.1 |
| 20260503202014 | 12 | 209 | 17.7 | 37.0 | 0.00 | 0.00 | 0.00 | 45 | 1010.5 |
| 20260503201515 | 13 | 207 | 12.9 | 33.8 | 0.00 | 0.00 | 0.00 | 46 | 1010.5 |
| 20260503201015 | 12 | 222 | 8.0 | 33.8 | 0.00 | 0.00 | 0.00 | 45 | 1010.5 |
| 20260503200514 | 12 | 214 | 17.7 | 27.4 | 0.00 | 0.00 | 0.00 | 45 | 1010.7 |
| 20260503200014 | 12 | 225 | 9.7 | 35.4 | 0.00 | 0.00 | 0.00 | 44 | 1010.7 |
| 20260503195513 | 12 | 204 | 8.0 | 40.2 | 0.00 | 0.00 | 0.00 | 45 | 1010.9 |
| 20260503195013 | 12 | 204 | 16.1 | 40.2 | 0.00 | 0.00 | 0.00 | 43 | 1010.6 |
| 20260503194513 | 12 | 244 | 14.5 | 33.8 | 0.00 | 0.00 | 0.00 | 43 | 1011.0 |
| 20260503194014 | 13 | 263 | 17.7 | 25.7 | 0.00 | 0.00 | 0.00 | 42 | 1010.9 |
| 20260503193512 | 13 | 259 | 3.2 | 37.0 | 0.00 | 0.00 | 0.00 | 42 | 1010.7 |
| 20260503193013 | 13 | 240 | 9.7 | 37.0 | 0.00 | 0.00 | 0.00 | 41 | 1011.0 |
| 20260503192513 | 13 | 239 | 19.3 | 33.8 | 0.00 | 0.00 | 0.00 | 39 | 1011.1 |
| 20260503192012 | 13 | 207 | 14.5 | 29.0 | 0.00 | 0.00 | 0.00 | 39 | 1011.1 |
| 20260503191512 | 13 | 240 | 16.1 | 38.6 | 0.00 | 0.03 | 0.00 | 39 | 1011.2 |
| 20260503191012 | 12 | 245 | 9.7 | 38.6 | 0.00 | 0.03 | 0.00 | 40 | 1011.4 |
| 20260503190512 | 12 | 227 | 27.4 | 38.6 | 0.00 | 0.03 | 0.00 | 39 | 1011.5 |
| 20260503190012 | 12 | 226 | 14.5 | 38.6 | 0.00 | 0.03 | 0.00 | 39 | 1011.5 |
| 20260503185511 | 12 | 204 | 9.7 | 35.4 | 0.00 | 0.03 | 0.00 | 39 | 1011.5 |
| 20260503185011 | 13 | 211 | 33.8 | 38.6 | 0.00 | 0.03 | 0.00 | 39 | 1011.6 |
| 20260503184511 | 12 | 308 | 9.7 | 40.2 | 0.00 | 0.03 | 0.00 | 41 | 1011.6 |
| 20260503184231 | 12 | 234 | 14.5 | 40.2 | 0.00 | 0.03 | 0.00 | 38 | 1011.6 |
| 20260503183511 | 12 | 210 | 16.1 | 40.2 | 0.00 | 0.03 | 0.00 | 38 | 1011.9 |
| 20260503183010 | 11 | 205 | 17.7 | 35.4 | 0.00 | 0.03 | 0.00 | 37 | 1011.9 |
| 20260503182510 | 12 | 236 | 16.1 | 35.4 | 0.00 | 0.03 | 0.00 | 38 | 1012.1 |
| 20260503182235 | 11 | 202 | 20.9 | 35.4 | 0.00 | 0.03 | 0.00 | 37 | 1011.9 |
| 20260503181509 | 12 | 198 | 17.7 | 32.2 | 0.00 | 0.03 | 0.00 | 37 | 1012.2 |
| 20260503181231 | 11 | 215 | 6.4 | 32.2 | 0.00 | 0.03 | 0.00 | 39 | 1012.3 |
| 20260503180510 | 11 | 238 | 9.7 | 32.2 | 0.00 | 0.03 | 0.00 | 39 | 1012.1 |
| 20260503180009 | 11 | 192 | 11.3 | 27.4 | 0.00 | 0.03 | 0.00 | 40 | 1012.5 |
| 20260503175509 | 11 | 226 | 16.1 | 27.4 | 0.00 | 0.03 | 0.00 | 41 | 1012.5 |
| 20260503175008 | 11 | 210 | 8.0 | 29.0 | 0.00 | 0.03 | 0.00 | 42 | 1012.5 |
| 20260503174508 | 11 | 218 | 11.3 | 29.0 | 0.00 | 0.03 | 0.00 | 42 | 1012.9 |
| 20260503174230 | 11 | 206 | 17.7 | 40.2 | 0.00 | 0.03 | 0.00 | 41 | 1012.8 |
| 20260503173508 | 10 | 211 | 16.1 | 40.2 | 0.00 | 0.03 | 0.00 | 41 | 1012.6 |
| 20260503173008 | 10 | 201 | 9.7 | 30.6 | 0.00 | 0.03 | 0.00 | 41 | 1012.9 |
| 20260503172509 | 11 | 196 | 9.7 | 30.6 | 0.00 | 0.03 | 0.00 | 39 | 1013.0 |
| 20260503172007 | 11 | 191 | 14.5 | 25.7 | 0.00 | 0.03 | 0.00 | 42 | 1012.9 |
| 20260503171507 | 11 | 296 | 12.9 | 20.9 | 0.00 | 0.03 | 0.00 | 42 | 1012.8 |
| 20260503171228 | 11 | 292 | 4.8 | 25.7 | 0.00 | 0.03 | 0.00 | 41 | 1013.0 |
| 20260503170507 | 11 | 248 | 12.9 | 25.7 | 0.00 | 0.03 | 0.00 | 39 | 1013.0 |
| 20260503151002 | 10 | 207 | 8.0 | 19.3 | 0.00 | 0.03 | 0.00 | 57 | 1013.9 |
| 20260503150502 | 10 | 263 | 9.7 | 22.5 | 0.00 | 0.03 | 0.00 | 58 | 1013.8 |
| 20260503150447 | 9 | 205 | 11.3 | 33.8 | 0.00 | 0.03 | 0.00 | 60 | 1013.8 |
| 20260503130957 | 6 | 191 | 12.9 | 22.5 | 0.00 | 0.03 | 0.00 | 69 | 1014.6 |
| 20260503130457 | 6 | 193 | 8.0 | 16.1 | 0.00 | 0.03 | 0.00 | 70 | 1014.7 |
| 20260503110713 | 1 | 191 | 3.2 | 8.0 | 0.00 | 0.03 | 0.00 | 81 | 1014.4 |
| 20260503100154 | 0 | 211 | 3.2 | 6.4 | 0.00 | 0.03 | 0.00 | 89 | 1014.3 |
| 20260503090447 | 1 | 359 | 0.0 | 8.0 | 0.00 | 0.03 | 0.00 | 89 | 1014.5 |
| 20260503081445 | 1 | 208 | 3.2 | 4.8 | 0.00 | 0.03 | 0.00 | 93 | 1014.4 |
| 20260503081201 | 1 | 187 | 0.0 | 8.0 | 0.00 | 0.03 | 0.00 | 91 | 1014.7 |
| 20260503080710 | 1 | 286 | 0.0 | 8.0 | 0.00 | 0.03 | 0.00 | 90 | 1014.4 |
| 20260503072943 | 1 | 182 | 6.4 | 8.0 | 0.00 | 0.03 | 0.00 | 89 | 1014.5 |
| 20260503072703 | 1 | 213 | 8.0 | 9.7 | 0.00 | 0.03 | 0.00 | 89 | 1014.5 |
| 20260503071943 | 1 | 196 | 8.0 | 9.7 | 0.00 | 0.03 | 0.00 | 89 | 1014.4 |
| 20260503071442 | 1 | 209 | 6.4 | 9.7 | 0.00 | 0.03 | 0.00 | 91 | 1014.4 |
| 20260503071207 | 1 | 191 | 6.4 | 11.3 | 0.00 | 0.03 | 0.00 | 89 | 1014.5 |
| 20260503070442 | 2 | 192 | 6.4 | 11.3 | 0.00 | 0.03 | 0.00 | 87 | 1014.5 |
| 20260503054939 | 2 | 187 | 6.4 | 12.9 | 0.00 | 0.03 | 0.00 | 83 | 1014.9 |
| 20260503054439 | 2 | 176 | 4.8 | 9.7 | 0.00 | 0.03 | 0.00 | 83 | 1014.9 |
| 20260503054159 | 2 | 195 | 8.0 | 9.7 | 0.00 | 0.03 | 0.00 | 82 | 1014.8 |
| 20260503053438 | 2 | 207 | 4.8 | 9.7 | 0.00 | 0.03 | 0.00 | 83 | 1014.9 |
| 20260503052938 | 2 | 210 | 4.8 | 11.3 | 0.00 | 0.03 | 0.00 | 83 | 1015.0 |
| 20260503052438 | 2 | 194 | 3.2 | 11.3 | 0.00 | 0.03 | 0.00 | 81 | 1014.9 |
| 20260503051938 | 3 | 210 | 4.8 | 9.7 | 0.00 | 0.03 | 0.00 | 79 | 1015.0 |
| 20260503051438 | 3 | 206 | 4.8 | 9.7 | 0.00 | 0.03 | 0.00 | 79 | 1014.9 |
| 20260503050937 | 3 | 188 | 3.2 | 9.7 | 0.00 | 0.03 | 0.00 | 78 | 1015.3 |
| 20260503050437 | 3 | 195 | 6.4 | 11.3 | 0.00 | 0.03 | 0.00 | 78 | 1015.2 |
| 20260503045937 | 3 | 213 | 6.4 | 11.3 | 0.00 | 0.03 | 0.00 | 78 | 1015.1 |
| 20260503045918 | 3 | 213 | 1.6 | 14.5 | 0.00 | 0.03 | 0.00 | 78 | 1015.2 |